Shishmaref, AK

5:10 AM AKST on February 21, 2018 (GMT -0900)
New Shishmaref

Weather History for PASH - July, 2013

Change the Weather History Date:

Monday, July 8, 2013

  Actual Average Record
Temperature  
Mean Temperature 42 °F -  
Max Temperature 42 °F 50 °F 62 °F (2008)
Min Temperature 42 °F 42 °F 39 °F (1998)
Degree Days  
Heating Degree Days 23    
Moisture  
Dew Point 40 °F    
Average Humidity 91    
Maximum Humidity 100    
Minimum Humidity 87    
Precipitation  
Precipitation 0.00 in - - ()
Sea Level Pressure  
Sea Level Pressure 29.79 in    
Wind  
Wind Speed 11 mph (West)    
Max Wind Speed 18 mph    
Max Gust Speed -    
Visibility 3 miles    
Events      
Averages and records for this station are not official NWS values.
T = Trace of Precipitation, MM = Missing Value Source: NWS Daily Summary

Daily Weather History Graph

Daily Weather History Graph

Search for Another Location

Airport or City:

Trip Planner

Search our weather history database for the weather conditions in past years. The results will help you decide how hot, cold, wet, or windy it might be!

Date:

Astronomy

Jul. 08, 2013 Rise Set
Actual Time 3:59 AM AKDT 2:14 AM AKDT
Civil Twilight Sun does not rise Sun does not rise
Nautical Twilight Sun does not rise Sun does not rise
Astronomical Twilight Sun does not rise Sun does not rise
Moon 6:19 AM AKDT (7/8) 12:17 AM AKDT (7/8)
Length of Visible Light 24h 00m
Length of Day
22h 15m
New Moon, 0% of the Moon is Illuminated
Jul 8
New Moon
Jul 15
First Quarter
Jul 22
Full
Jul 29
Last Quarter
Aug 6
New

Hourly Weather History & Observations

Time (AKDT) Temp. Windchill Dew Point Humidity Pressure Visibility Wind Dir Wind Speed Gust Speed Precip Events Conditions
12:16 AM 42.8 °F 39.3 °F 42.8 °F 100% 29.76 in 0.2 mi WNW 5.8 mph - N/A   Overcast
12:36 AM 42.8 °F 38.6 °F 41.0 °F 93% 29.76 in 0.2 mi WNW 6.9 mph - N/A   Overcast
12:56 AM 42.8 °F 38.6 °F 41.0 °F 93% 29.76 in 0.2 mi West 6.9 mph - N/A   Overcast
1:16 AM 42.8 °F 38.6 °F 41.0 °F 93% 29.77 in 0.2 mi West 6.9 mph - N/A   Overcast
1:36 AM 42.8 °F 38.6 °F 41.0 °F 93% 29.77 in 0.2 mi West 6.9 mph - N/A   Overcast
1:56 AM 42.8 °F 38.0 °F 41.0 °F 93% 29.77 in 0.2 mi West 8.1 mph - N/A   Overcast
2:16 AM 42.8 °F 37.5 °F 41.0 °F 93% 29.77 in 0.5 mi West 9.2 mph - N/A   Overcast
2:36 AM 42.8 °F 37.5 °F 41.0 °F 93% 29.77 in 1.5 mi West 9.2 mph - N/A   Overcast
2:56 AM 42.8 °F 37.0 °F 41.0 °F 93% 29.77 in 1.8 mi West 10.4 mph - N/A   Overcast
3:16 AM 42.8 °F 37.0 °F 41.0 °F 93% 29.77 in 7.0 mi WNW 10.4 mph - N/A   Overcast
3:36 AM 42.8 °F 37.0 °F 41.0 °F 93% 29.76 in 10.0 mi WNW 10.4 mph - N/A   Overcast
3:56 AM 42.8 °F 36.6 °F 39.2 °F 87% 29.76 in 10.0 mi West 11.5 mph - N/A   Overcast
4:16 AM 42.8 °F 36.6 °F 39.2 °F 87% 29.76 in 10.0 mi WNW 11.5 mph - N/A   Overcast
4:36 AM 42.8 °F 37.5 °F 39.2 °F 87% 29.76 in 10.0 mi WNW 9.2 mph - N/A   Overcast
4:56 AM 42.8 °F 37.0 °F 39.2 °F 87% 29.77 in 9.0 mi WNW 10.4 mph - N/A   Overcast
5:16 AM 42.8 °F 36.6 °F 39.2 °F 87% 29.76 in 10.0 mi WNW 11.5 mph - N/A   Overcast
5:36 AM 42.8 °F 37.5 °F 39.2 °F 87% 29.77 in 10.0 mi WNW 9.2 mph - N/A   Overcast
5:56 AM 42.8 °F 37.0 °F 41.0 °F 93% 29.77 in 10.0 mi WNW 10.4 mph - N/A   Overcast
6:16 AM 42.8 °F 37.5 °F 41.0 °F 93% 29.77 in 10.0 mi WNW 9.2 mph - N/A   Overcast
6:36 AM 42.8 °F 37.5 °F 41.0 °F 93% 29.77 in 10.0 mi WNW 9.2 mph - N/A   Overcast
6:56 AM 42.8 °F 37.5 °F 41.0 °F 93% 29.76 in 10.0 mi West 9.2 mph - N/A   Overcast
7:16 AM 42.8 °F 37.0 °F 41.0 °F 93% 29.76 in 9.0 mi West 10.4 mph - N/A   Overcast
7:36 AM 42.8 °F 37.0 °F 41.0 °F 93% 29.76 in 10.0 mi West 10.4 mph - N/A   Overcast
7:56 AM 42.8 °F 37.5 °F 41.0 °F 93% 29.77 in 10.0 mi West 9.2 mph - N/A   Overcast
8:16 AM 42.8 °F 37.0 °F 41.0 °F 93% 29.77 in 10.0 mi West 10.4 mph - N/A   Overcast
8:36 AM 42.8 °F 36.6 °F 41.0 °F 93% 29.77 in 10.0 mi West 11.5 mph - N/A   Overcast
8:56 AM 42.8 °F 36.6 °F 41.0 °F 93% 29.77 in 9.0 mi West 11.5 mph - N/A   Overcast
9:16 AM 42.8 °F 37.0 °F 41.0 °F 93% 29.77 in 1.8 mi West 10.4 mph - N/A   Overcast
9:36 AM 42.8 °F 35.8 °F 39.2 °F 87% 29.77 in 0.2 mi West 13.8 mph - N/A   Overcast
9:56 AM 42.8 °F 35.8 °F 39.2 °F 87% 29.77 in 0.2 mi WNW 13.8 mph - N/A   Overcast
10:16 AM 42.8 °F 35.8 °F 39.2 °F 87% 29.77 in 0.5 mi WNW 13.8 mph - N/A   Overcast
10:36 AM 42.8 °F 35.8 °F 39.2 °F 87% 29.77 in 0.5 mi WNW 13.8 mph - N/A   Overcast
10:56 AM 42.8 °F 35.8 °F 39.2 °F 87% 29.77 in 0.2 mi WNW 13.8 mph - N/A   Overcast
11:16 AM 42.8 °F 36.2 °F 39.2 °F 87% 29.77 in 0.5 mi West 12.7 mph - N/A   Overcast
11:36 AM 42.8 °F 35.8 °F 41.0 °F 93% 29.77 in 0.2 mi West 13.8 mph - N/A   Overcast
11:56 AM 42.8 °F 36.2 °F 39.2 °F 87% 29.77 in 0.2 mi WNW 12.7 mph - N/A   Overcast
12:16 PM 42.8 °F 36.2 °F 41.0 °F 93% 29.77 in 0.5 mi West 12.7 mph - N/A   Overcast
12:36 PM 42.8 °F 35.8 °F 39.2 °F 87% 29.77 in 0.5 mi WNW 13.8 mph - N/A   Overcast
12:56 PM 42.8 °F 36.6 °F 41.0 °F 93% 29.78 in 0.5 mi WNW 11.5 mph - N/A   Overcast
1:16 PM 42.8 °F 36.2 °F 41.0 °F 93% 29.79 in 0.2 mi WNW 12.7 mph - N/A   Overcast
1:36 PM 42.8 °F 37.0 °F 41.0 °F 93% 29.79 in 1.0 mi WNW 10.4 mph - N/A   Overcast
1:56 PM 42.8 °F 36.6 °F 41.0 °F 93% 29.79 in 0.8 mi West 11.5 mph - N/A   Overcast
2:16 PM 42.8 °F 36.2 °F 41.0 °F 93% 29.79 in 1.0 mi West 12.7 mph - N/A   Overcast
2:36 PM 42.8 °F 35.8 °F 41.0 °F 93% 29.79 in 1.0 mi West 13.8 mph - N/A   Overcast
2:56 PM 42.8 °F 35.8 °F 41.0 °F 93% 29.80 in 0.8 mi West 13.8 mph - N/A   Overcast
3:16 PM 42.8 °F 36.2 °F 39.2 °F 87% 29.80 in 0.8 mi West 12.7 mph - N/A   Overcast
3:36 PM 42.8 °F 35.8 °F 41.0 °F 93% 29.80 in 1.0 mi WNW 13.8 mph - N/A   Overcast
3:56 PM 42.8 °F 35.4 °F 41.0 °F 93% 29.80 in 0.8 mi West 15.0 mph - N/A   Overcast
4:16 PM 42.8 °F 35.4 °F 41.0 °F 93% 29.80 in 0.8 mi West 15.0 mph - N/A   Overcast
4:36 PM 42.8 °F 35.4 °F 41.0 °F 93% 29.80 in 1.0 mi WNW 15.0 mph - N/A   Overcast
4:56 PM 42.8 °F 35.4 °F 41.0 °F 93% 29.80 in 0.5 mi West 15.0 mph - N/A   Overcast
5:16 PM 42.8 °F 35.8 °F 41.0 °F 93% 29.80 in 0.8 mi West 13.8 mph - N/A   Overcast
5:36 PM 42.8 °F 35.4 °F 41.0 °F 93% 29.81 in 0.5 mi West 15.0 mph - N/A   Overcast
5:56 PM 42.8 °F 35.1 °F 39.2 °F 87% 29.81 in 0.5 mi West 16.1 mph - N/A   Overcast
6:16 PM 42.8 °F 35.1 °F 39.2 °F 87% 29.81 in 0.5 mi West 16.1 mph - N/A   Overcast
6:36 PM 42.8 °F 34.8 °F 39.2 °F 87% 29.81 in 0.5 mi West 17.3 mph - N/A   Overcast
6:56 PM 42.8 °F 35.1 °F 41.0 °F 93% 29.81 in 0.5 mi West 16.1 mph - N/A   Overcast
7:16 PM 42.8 °F 35.1 °F 39.2 °F 87% 29.82 in 0.2 mi West 16.1 mph - N/A   Overcast
7:36 PM 42.8 °F 35.4 °F 41.0 °F 93% 29.82 in 0.2 mi West 15.0 mph - N/A   Overcast
7:56 PM 42.8 °F 35.4 °F 41.0 °F 93% 29.82 in 0.2 mi West 15.0 mph - N/A   Overcast
8:16 PM 42.8 °F 35.8 °F 41.0 °F 93% 29.83 in 0.2 mi West 13.8 mph - N/A   Overcast
8:36 PM 42.8 °F 35.4 °F 39.2 °F 87% 29.83 in 0.2 mi West 15.0 mph - N/A   Overcast
8:56 PM 42.8 °F 35.1 °F 39.2 °F 87% 29.83 in 0.2 mi West 16.1 mph - N/A   Overcast
9:16 PM 42.8 °F 35.1 °F 39.2 °F 87% 29.83 in 0.2 mi West 16.1 mph - N/A   Overcast
9:36 PM 42.8 °F 35.4 °F 39.2 °F 87% 29.83 in 0.2 mi West 15.0 mph - N/A   Overcast
9:56 PM 42.8 °F 35.8 °F 39.2 °F 87% 29.83 in 0.2 mi West 13.8 mph - N/A   Overcast
10:16 PM 42.8 °F 35.4 °F 39.2 °F 87% 29.83 in 0.2 mi West 15.0 mph - N/A   Overcast
10:36 PM 42.8 °F 35.1 °F 39.2 °F 87% 29.83 in 0.2 mi West 16.1 mph - N/A   Overcast
10:56 PM 42.8 °F 34.8 °F 39.2 °F 87% 29.83 in 0.2 mi West 17.3 mph - N/A   Overcast
11:16 PM 42.8 °F 34.8 °F 39.2 °F 87% 29.84 in 0.2 mi West 17.3 mph - N/A   Overcast
11:36 PM 42.8 °F 34.8 °F 39.2 °F 87% 29.84 in 0.2 mi West 17.3 mph - N/A   Overcast
11:56 PM 42.8 °F 34.5 °F 39.2 °F 87% 29.84 in 0.2 mi West 18.4 mph - N/A   Overcast